Flag for Belgium Weather past 2 weeks in Ghent, Belgium

Now
58 °F

Cool.


Feels Like: 58 °F
Forecast: 51 / 65 °F
Wind: 2 mph from Southwest

Location: Munte

Current Time: Jul 30, 2015 at 12:28:41 AM

Latest Report: Jul 29, 2015 at 11:00 PM


Visibility: 13 mi

Pressure: 29.95 "Hg

Humidity: 71%

Dew point: 48 °F

Location of GhentLocation

Historic Weather in Ghent — Graph

°F

Ghent temperature yesterday

Maximum temperature yesterday: 66 °F (at 3:00 PM)
Minimum temperature yesterday: 51 °F (at 4:00 AM)
Average temperature yesterday: 59 °F

Past Weeks' High & Low Weather Summary

 TemperatureHumidityPressure
High81 °F (Jul 16, 6:00 PM)100% (Jul 15, 7:00 AM)30.14 "Hg (Jul 15, 7:00 AM)
Low51 °F (Jul 26, 5:00 AM)37% (Jul 18, 6:00 PM)29.50 "Hg (Jul 25, 3:00 AM)
Average64 °F76%29.90 "Hg
* Reported Jul 14 10:00 PM — Jul 29 10:00 PM, Ghent, Weather by CustomWeather, © 2015

Note: Actual official high and low records may vary slightly from our data, if they occured in-between our weather recording intervals... More about our weather records

Advertising

Ghent weather history for previous 24 hours

 ConditionsComfort  
Time TempWeatherWind HumidityBarometerVisibility
10:00 PM
Wed, Jul 29
59 °FCool.2 mph68%29.94 "Hg12 mi
9:00 PM60 °FLight rain. Cloudy.N/A68%29.92 "Hg12 mi
8:00 PM62 °FRefreshingly cool.3 mph57%29.92 "Hg12 mi
7:00 PM63 °FMild.5 mph53%29.90 "Hg12 mi
6:00 PM65 °FMild.5 mph45%29.89 "Hg12 mi
5:00 PM64 °FMild.5 mph48%29.88 "Hg12 mi
4:00 PM64 °FMild.6 mph49%29.87 "Hg12 mi
3:00 PM66 °FMild.6 mph43%29.85 "Hg12 mi
2:00 PM65 °FMild.6 mph45%29.84 "Hg12 mi
1:00 PM64 °FMild.7 mph48%29.83 "Hg12 mi
12:00 PM63 °FMild.6 mph57%29.81 "Hg12 mi
11:00 AM62 °FCool.6 mph61%29.80 "Hg11 mi
10:00 AM60 °FCool.7 mph67%29.80 "Hg12 mi
9:00 AM57 °FCool.6 mph74%29.80 "Hg12 mi
8:00 AM54 °FCool.5 mph89%29.79 "Hg12 mi
7:00 AM52 °FCool.3 mph92%29.80 "Hg12 mi
4:00 AM51 °FCool.3 mph91%29.79 "Hg12 mi
3:00 AM52 °FCool.5 mph88%29.80 "Hg12 mi
2:00 AM53 °FCool.5 mph85%29.80 "Hg12 mi
1:00 AM54 °FCool.5 mph82%29.80 "Hg12 mi
12:00 AM55 °FCool.5 mph77%29.80 "Hg12 mi
Weather by CustomWeather, © 2015

See weather overviewHow to use our weather pages